Wind_Speed
30 29 29 29 29 28 29 29 28 27 28 31 33 32 31 30 31 32 32 32 30 28 28 27 26 26 25 25 25 25 24 24 24 24 24 24 24 25
28 28 28 28 28 27 27 27 27 26 26 28 30 30 29 29 30 31 31 30 29 28 27 26 26 26 25 25 24 24 24 24 24 24 23 23 24 25
29 29 29 29 29 28 27 27 27 26 26 27 29 29 28 28 29 30 29 27 26 27 26 25 25 24 24 24 24 24 24 24 24 23 24 25 24 23
30 30 30 30 31 30 30 29 29 27 26 26 28 29 29 29 28 28 27 26 25 25 25 23 23 23 22 22 22 22 22 23 23 23 25 24 23 22
33 33 32 32 32 32 32 32 31 30 29 28 28 28 28 28 28 27 26 26 26 26 25 24 23 23 22 21 21 21 22 22 23 23 24 24 22 21
34 34 34 34 34 34 34 34 34 33 32 31 30 30 30 29 28 28 27 27 26 26 25 25 23 22 21 21 22 21 22 23 23 23 22 22 22 21
35 35 35 35 35 36 36 36 36 36 35 34 33 32 32 31 30 29 29 29 28 27 26 25 24 23 22 21 21 22 23 23 23 23 22 22 22 21
35 35 36 36 36 36 37 37 37 37 37 36 36 35 35 34 33 33 32 31 30 28 27 26 26 25 24 23 22 22 22 23 23 23 23 23 22 22
34 35 36 36 36 37 37 37 37 38 38 38 38 37 37 37 36 35 35 33 31 30 29 29 28 26 25 24 23 22 22 23 24 23 23 23 23 24
32 33 34 35 36 36 36 37 37 37 37 38 39 39 39 39 39 38 37 36 35 34 33 31 30 29 28 26 25 24 24 23 24 24 25 25 25 26
30 32 33 34 34 35 36 36 36 36 36 36 37 39 40 40 40 40 40 39 38 37 36 34 32 31 31 29 27 27 27 26 26 26 26 26 26 27
29 30 32 33 35 35 36 36 36 36 35 35 36 37 38 39 40 40 40 40 40 39 38 36 35 34 33 32 31 30 28 28 28 28 28 27 26 26
29 30 31 32 33 33 34 34 34 34 34 34 34 34 35 36 37 38 40 41 41 41 41 39 37 36 36 35 34 33 32 31 29 29 29 28 28 28
28 29 29 30 30 31 31 32 32 32 32 32 32 33 33 34 35 35 36 38 40 42 43 42 41 40 38 36 35 34 33 33 31 30 30 30 30 29
26 27 27 28 28 29 29 29 30 30 30 30 31 31 32 32 33 33 33 35 37 40 43 44 44 44 43 40 37 35 35 35 34 33 32 32 33 32
25 26 27 27 27 27 26 26 26 27 27 28 28 29 30 31 31 31 32 32 34 37 39 43 45 45 45 44 42 39 37 35 35 36 36 35 35 35
26 26 27 27 27 26 26 25 25 25 25 26 26 27 28 29 30 30 31 31 31 33 35 39 42 45 45 44 43 42 40 38 38 38 38 38 37 37
26 26 27 27 26 25 25 24 24 24 24 24 24 25 26 28 29 29 30 31 31 31 32 34 37 40 43 44 44 43 42 40 39 39 39 39 39 39
24 25 26 27 26 26 25 24 24 23 23 23 23 24 25 26 28 29 30 30 30 30 30 30 32 33 36 38 40 42 41 41 40 40 41 41 40 40
24 25 26 27 28 27 27 26 25 24 24 23 22 22 23 25 27 29 30 31 31 30 30 29 29 29 30 32 34 37 39 40 40 40 40 40 41 41
24 25 26 27 28 29 29 28 27 25 24 23 22 21 22 23 24 27 29 31 32 32 31 30 30 29 28 28 29 31 33 36 37 38 39 39 40 40
25 26 27 28 29 29 30 29 29 27 25 24 23 22 21 21 22 24 26 29 32 33 34 34 33 32 31 29 28 28 28 30 32 34 35 36 37 38
25 26 28 29 30 30 31 31 30 28 27 25 24 23 22 21 20 21 23 26 29 32 35 36 36 35 34 33 31 30 29 28 29 30 31 33 34 35
Wind_Direction
287 286 287 288 289 289 288 285 283 280 277 274 271 269 267 266 266 262 259 258 257 257 258 258 259 260 259 257 256 255 255 254 256 255 256 254 254 258
283 283 284 285 287 287 287 286 283 280 277 274 273 272 271 267 266 263 260 257 256 256 256 256 257 258 257 256 254 254 253 252 253 253 251 251 254 257
281 281 282 282 282 284 285 285 285 282 279 275 272 271 270 267 266 264 259 256 256 255 254 255 256 255 255 255 253 251 250 249 249 248 250 254 254 254
279 279 280 280 280 281 282 283 283 282 280 277 273 270 267 265 264 263 259 258 258 256 254 253 253 252 253 253 251 247 246 246 245 245 247 249 250 249
277 278 278 279 279 279 279 280 280 279 278 276 274 272 269 265 261 259 259 258 258 257 255 253 253 252 252 250 248 244 242 241 240 241 243 244 246 245
277 278 279 279 279 279 278 278 277 277 276 274 272 271 270 266 261 258 258 258 258 259 256 254 252 252 251 250 248 243 240 240 240 238 239 240 240 239
279 280 280 280 279 279 278 278 276 275 274 273 271 269 268 266 262 259 258 258 258 258 257 254 253 252 251 252 248 243 241 237 236 237 236 237 237 236
280 282 283 282 282 280 279 278 276 274 272 271 269 267 266 264 263 260 258 257 257 256 255 253 253 253 251 249 246 243 240 237 236 238 238 238 237 235
283 284 284 284 284 283 282 280 277 275 273 271 268 266 264 262 260 258 256 255 254 253 252 253 253 252 251 248 245 244 242 241 242 240 239 240 238 236
286 287 287 287 286 285 283 282 279 277 274 271 268 266 263 260 258 256 255 253 252 251 250 250 250 251 251 250 247 245 243 242 243 242 241 240 241 239
290 290 290 289 288 287 286 283 281 278 275 271 268 265 262 259 256 254 252 250 249 248 247 247 248 249 250 249 248 244 243 244 246 243 243 242 242 242
295 294 293 292 291 289 288 285 282 279 276 273 270 266 263 259 256 254 251 248 246 245 244 243 244 246 248 247 247 246 245 245 246 246 245 244 245 247
300 299 298 297 294 292 290 287 283 280 276 273 270 268 264 261 257 254 251 247 244 241 241 241 241 242 244 245 244 244 245 245 245 246 246 248 250 251
306 305 304 303 300 297 294 290 284 281 278 274 270 267 265 262 259 255 252 249 245 241 239 239 239 241 244 243 243 242 243 244 246 247 248 249 251 252
315 314 312 310 307 304 301 296 290 285 280 276 272 268 264 261 259 257 254 251 247 243 240 239 239 239 242 243 243 243 243 243 244 244 246 247 249 251
325 323 321 317 314 312 309 304 298 292 286 281 275 270 265 261 257 255 255 253 250 247 244 242 241 240 240 242 243 244 245 244 244 245 246 249 250 251
331 329 326 323 320 317 315 312 306 301 294 287 281 274 268 263 258 255 253 254 253 250 247 244 242 242 242 242 243 243 243 243 243 244 246 247 249 251
334 334 333 331 328 325 322 319 314 308 302 294 286 278 270 264 259 256 253 251 252 252 251 249 247 245 245 245 245 245 245 243 243 243 246 247 247 248
337 337 338 338 336 332 328 324 320 316 311 304 295 285 276 268 262 257 253 251 250 251 251 251 250 249 248 247 246 247 246 245 244 244 244 244 244 246
337 336 336 337 337 337 335 332 327 323 318 313 306 296 285 275 266 260 255 252 250 249 249 250 250 249 250 249 248 246 245 244 243 242 243 244 245 247
335 334 334 335 336 337 337 335 332 327 324 320 313 305 295 284 273 265 259 254 250 248 247 247 246 246 248 248 249 247 245 243 243 243 243 243 243 245
333 335 335 335 336 338 338 337 335 331 326 323 318 312 305 295 283 273 264 258 254 250 247 245 244 243 245 245 246 247 246 244 243 243 243 243 242 243
330 333 336 337 338 338 338 338 335 333 329 325 322 317 310 303 294 283 272 265 258 253 249 247 245 243 243 244 243 244 243 242 242 243 244 244 243 244
Height
5785 5784 5782 5781 5779 5778 5777 5776 5776 5775 5773 5771 5770 5770 5770 5770 5770 5770 5771 5772 5773 5775 5776 5776 5777 5777 5778 5779 5780 5781 5782 5783 5784 5786 5787 5788 5790 5791
5777 5776 5775 5774 5772 5771 5769 5768 5767 5767 5766 5764 5762 5762 5762 5762 5762 5762 5763 5764 5765 5766 5767 5768 5769 5770 5771 5772 5773 5774 5775 5777 5778 5779 5780 5782 5784 5785
5770 5769 5767 5766 5765 5764 5762 5761 5760 5759 5758 5757 5755 5754 5755 5754 5755 5755 5755 5756 5757 5758 5759 5760 5762 5763 5764 5765 5766 5767 5769 5770 5772 5773 5775 5776 5778 5779
5762 5761 5759 5758 5757 5756 5754 5753 5752 5751 5751 5749 5748 5747 5747 5747 5747 5747 5748 5748 5750 5751 5752 5753 5755 5756 5757 5758 5759 5761 5762 5764 5765 5767 5769 5771 5772 5773
5753 5752 5751 5750 5748 5747 5746 5745 5744 5743 5743 5742 5741 5740 5739 5740 5740 5740 5741 5741 5742 5744 5745 5746 5748 5749 5750 5752 5753 5754 5756 5758 5759 5761 5763 5764 5766 5767
5744 5743 5742 5740 5739 5738 5737 5736 5734 5734 5733 5733 5733 5732 5732 5732 5732 5733 5733 5734 5735 5736 5738 5739 5741 5742 5743 5745 5746 5748 5749 5751 5753 5754 5756 5759 5760 5762
5735 5733 5732 5730 5729 5727 5726 5725 5724 5724 5723 5723 5723 5723 5724 5724 5724 5725 5726 5726 5728 5729 5730 5732 5734 5735 5736 5738 5739 5741 5743 5744 5746 5748 5750 5752 5755 5757
5725 5724 5722 5720 5718 5717 5716 5714 5713 5713 5712 5712 5713 5713 5714 5715 5715 5716 5717 5719 5720 5722 5723 5725 5726 5728 5729 5731 5732 5734 5736 5738 5740 5742 5744 5746 5749 5751
5716 5714 5712 5710 5708 5706 5704 5703 5702 5701 5701 5701 5701 5702 5703 5704 5706 5707 5708 5710 5711 5713 5715 5716 5718 5720 5722 5723 5725 5727 5729 5731 5733 5735 5738 5740 5742 5745
5707 5704 5702 5700 5697 5695 5693 5692 5690 5689 5689 5689 5689 5689 5690 5692 5694 5696 5698 5700 5702 5704 5706 5708 5710 5711 5713 5715 5717 5719 5722 5724 5726 5728 5731 5733 5736 5738
5697 5695 5692 5690 5687 5685 5682 5680 5679 5678 5677 5676 5676 5677 5678 5679 5681 5683 5686 5689 5691 5694 5696 5699 5700 5702 5704 5707 5709 5711 5714 5716 5719 5721 5723 5726 5728 5731
5689 5686 5683 5680 5677 5674 5672 5669 5668 5666 5665 5665 5665 5665 5665 5667 5669 5671 5673 5677 5680 5683 5685 5688 5691 5693 5695 5697 5700 5702 5705 5708 5710 5713 5715 5718 5721 5723
5680 5677 5674 5670 5667 5664 5661 5659 5657 5655 5654 5654 5653 5653 5654 5655 5656 5658 5660 5664 5667 5671 5674 5678 5680 5683 5685 5687 5690 5692 5696 5699 5702 5704 5707 5710 5713 5715
5672 5668 5665 5661 5658 5654 5651 5649 5646 5645 5644 5643 5643 5643 5643 5644 5645 5646 5648 5651 5654 5658 5662 5666 5670 5673 5675 5677 5680 5683 5685 5689 5692 5695 5698 5701 5704 5707
5664 5660 5657 5653 5649 5646 5642 5639 5637 5635 5633 5632 5632 5632 5632 5633 5634 5636 5637 5639 5642 5646 5649 5653 5657 5661 5664 5667 5670 5673 5676 5679 5682 5686 5689 5692 5695 5698
5658 5654 5650 5646 5642 5638 5634 5631 5628 5626 5624 5622 5622 5622 5622 5623 5624 5626 5627 5629 5631 5634 5637 5641 5645 5649 5652 5656 5659 5662 5665 5669 5672 5675 5679 5682 5685 5688
5652 5648 5644 5640 5636 5632 5628 5624 5621 5618 5616 5614 5613 5612 5612 5613 5614 5615 5618 5619 5621 5624 5626 5629 5632 5636 5640 5644 5647 5651 5654 5658 5661 5665 5668 5672 5675 5678
5648 5644 5639 5635 5631 5626 5622 5618 5615 5611 5609 5607 5605 5604 5603 5603 5604 5606 5608 5610 5612 5614 5616 5619 5621 5624 5628 5632 5635 5639 5643 5647 5651 5654 5657 5661 5664 5667
5644 5640 5635 5631 5627 5622 5618 5613 5609 5606 5602 5600 5597 5596 5595 5595 5595 5597 5598 5600 5602 5605 5607 5609 5611 5614 5617 5620 5623 5627 5632 5636 5639 5643 5646 5650 5653 5656
5640 5636 5632 5627 5623 5618 5613 5608 5604 5600 5597 5594 5591 5588 5587 5586 5586 5587 5589 5591 5593 5596 5598 5600 5603 5605 5608 5610 5613 5617 5620 5624 5628 5631 5635 5638 5641 5645
5636 5632 5628 5624 5619 5614 5609 5604 5599 5595 5591 5588 5585 5582 5580 5578 5578 5578 5579 5581 5583 5586 5589 5591 5594 5597 5599 5602 5604 5607 5610 5613 5616 5620 5623 5627 5630 5633
5632 5628 5624 5619 5615 5610 5604 5599 5595 5590 5586 5582 5579 5576 5574 5572 5570 5570 5570 5571 5573 5576 5578 5581 5584 5588 5590 5593 5595 5597 5600 5603 5606 5609 5613 5616 5618 5622
5627 5624 5619 5615 5610 5605 5600 5595 5590 5585 5581 5577 5573 5570 5568 5566 5564 5562 5562 5562 5563 5565 5568 5571 5574 5577 5580 5583 5586 5589 5592 5594 5597 5600 5603 5605 5608 5611